[[{"header":{"parameterUnit":"m.s-1","parameterCategory":1,"la1":30.2991,"la2":30.254,"lo1":-89.0895,"lo2":-89.0444,"dy":0.0017,"dx":0.0017,"nx":28,"ny":28,"refTime":"2024-10-05T21:00:00:Z","depth":0,"parameterNumber":2,"parameterNumberName":"U-component_of_WINDS"},"data":[0,0,0,0,0,0,0,0,0,0,0,0,0,0,0,0,0,0,0,0,0,0,0,0,0,0,0,0,0,0,0,0,0,0,0,0,0,0,0,0,0,0,0,0,0,0,0,0,0,0,0,0,0,0,0,0,0,0,-4.3727,-4.3727,0,-4.3747,-4.3747,-4.3747,-4.3668,-4.3665,-4.3663,-4.3661,-4.3681,-4.3684,-4.3687,0,0,0,0,0,0,0,0,0,0,0,0,0,-4.3621,-4.3623,-4.3727,-4.3727,-4.3727,-4.3747,-4.3747,-4.3748,-4.3668,-4.3665,-4.3662,-4.366,-4.3681,-4.3684,-4.3687,0,0,0,0,0,0,0,0,0,0,0,0,0,-4.3657,-4.3624,-4.3727,-4.369,-4.3687,-4.3747,-4.3747,-4.3748,-4.3669,-4.3665,-4.3662,-4.3658,-4.3679,-4.3683,-4.3688,-4.3784,0,0,-4.37,-4.3702,0,0,0,0,0,0,0,0,-4.3655,-4.3661,-4.3695,-4.3693,-4.369,-4.3701,-4.3717,-4.376,-4.367,-4.3676,-4.3661,-4.3657,-4.3691,-4.3694,-4.3705,-4.3785,-4.3785,-4.37,-4.3703,-4.3705,-4.3706,0,0,0,0,0,0,0,-4.3652,-4.3659,-4.3735,-4.3696,-4.3692,-4.3673,-4.3674,-4.3725,-4.3703,-4.3675,-4.3669,-4.3673,-4.3689,-4.3702,-4.3705,-4.3786,-4.37,-4.3704,-4.3707,-4.3708,-4.3948,-4.3951,0,0,0,0,0,0,-4.3655,-4.3658,-4.3734,-4.3735,-4.3663,-4.3678,-4.3679,-4.3701,-4.3702,-4.3699,-4.3676,-4.3669,-4.3696,-4.3701,-4.3706,-4.382,-4.3705,-4.3709,-4.3711,-4.3944,-4.3949,-4.3953,0,0,0,0,0,0,-4.3653,-4.3662,-4.3733,-4.3695,-4.3703,-4.3683,-4.3709,-4.3703,-4.3716,-4.3703,-4.3698,-4.3693,-4.3694,-4.37,-4.3765,-4.382,-4.371,-4.3714,-4.3939,-4.3945,-4.3951,-4.405,0,0,0,0,0,0,-4.365,-4.3662,-4.3698,-4.3697,-4.3705,-4.3793,-4.3712,-4.3706,-4.3724,-4.3715,-4.3718,-4.3715,-4.3691,-4.376,-4.377,-4.3824,-4.3717,-4.3934,-4.3942,-4.3949,-4.4041,-4.4058,-4.4072,0,0,0,0,0,-4.3647,-4.3724,-4.37,-4.371,-4.375,-4.3796,-4.3801,-4.3772,-4.3728,-4.3765,-4.3756,-4.3715,-4.3812,-4.3767,-4.3778,-4.3834,-4.3931,-4.394,-4.3948,-4.4035,-4.4055,-4.4072,0,0,0,0,0,0,-4.3732,-4.3723,-4.3697,-4.3776,-4.3788,-4.3782,-4.3827,-4.3794,-4.3818,-4.3809,-4.3773,-4.3774,-4.3847,-4.3846,-4.3796,-4.3928,-4.3864,-4.3875,-4.3926,-4.3945,-4.396,-4.396,-4.3721,0,0,0,0,0,-4.376,-4.3799,-4.3789,-4.386,-4.3867,-4.3847,-4.3866,-4.3843,-4.3853,-4.3858,-4.3854,-4.3866,-4.3899,-4.3922,-4.3951,-4.4041,-4.4041,-4.4084,-4.41,-4.4113,-4.4124,-4.4173,-4.4193,-4.3982,-4.3982,-4.3981,0,0,-4.3819,-4.3819,-4.3845,-4.3878,-4.3884,-4.3925,-4.3851,-4.3897,-4.3928,-4.3864,-4.3927,-4.3925,-4.3936,-4.4014,-4.4049,-4.4016,-4.4182,-4.4124,-4.4134,-4.4138,-4.4184,-4.4204,-4.4222,-4.3988,-4.3986,-4.3986,0,0,-4.3947,-4.395,-4.4011,-4.4019,-4.403,-4.4016,-4.4031,-4.4031,-4.4028,-4.409,-4.4044,-4.408,-4.4137,-4.4148,-4.416,-4.4295,-4.4259,-4.4306,-4.4387,-4.4436,-4.4453,-4.4468,-4.4518,-4.4536,-4.4316,-4.4316,-4.4317,0,-4.4019,-4.4079,-4.4047,-4.4097,-4.4114,-4.4058,-4.4121,-4.413,-4.415,-4.4163,-4.4126,-4.4199,-4.4202,-4.4284,-4.4317,-4.4328,-4.4345,-4.4306,-4.4453,-4.4467,-4.4481,-4.4528,-4.4547,-4.4322,-4.4322,-4.4321,-4.432,0,-4.4168,-4.421,-4.4258,-4.428,-4.4302,-4.4358,-4.4335,-4.4361,-4.4336,-4.4327,-4.4392,-4.4394,-4.4424,-4.4442,-4.4418,-4.4521,-4.4501,-4.4459,-4.4394,-4.4507,-4.4552,-4.4569,-4.4331,-4.4328,-4.4327,-4.4325,0,0,-4.435,-4.4355,-4.4373,-4.4384,-4.4392,-4.4425,-4.4479,-4.4509,-4.4533,-4.4549,-4.4594,-4.4645,-4.4608,-4.4623,-4.4599,-4.4642,-4.4752,-4.4595,-4.4595,-4.4627,-4.4869,-4.4901,-4.4923,-4.4727,-4.4731,-4.4733,-4.4868,0,-4.4478,-4.4571,-4.4545,-4.4638,-4.4679,-4.4628,-4.4675,-4.4686,-4.4679,-4.4712,-4.4704,-4.4742,-4.4688,-4.4697,-4.4737,-4.473,-4.48,-4.472,-4.4771,-4.4773,-4.4772,-4.4945,-4.498,-4.5107,-4.4885,-4.4888,-4.489,0,-4.464,-4.4663,-4.4762,-4.4766,-4.4781,-4.4825,-4.4852,-4.4884,-4.4895,-4.4887,-4.4905,-4.4874,-4.4928,-4.4862,-4.4938,-4.4884,-4.4903,-4.4904,-4.4908,-4.4913,-4.484,-4.4958,-4.5147,-4.5167,-4.4917,-4.4915,-4.4913,0,-4.4766,-4.4822,-4.4889,-4.4899,-4.4904,-4.4937,-4.494,-4.4949,-4.4969,-4.4993,-4.5006,-4.5036,-4.5052,-4.5076,-4.5054,-4.5008,-4.5135,-4.5066,-4.5131,-4.5132,-4.5161,-4.516,-4.5358,-4.517,-4.517,-4.517,-4.5169,0,-4.4913,-4.4976,-4.4946,-4.4987,-4.5057,-4.5026,-4.5095,-4.5093,-4.5102,-4.5142,-4.5099,-4.5138,-4.5106,-4.5143,-4.5126,-4.5193,-4.52,-4.5196,-4.5191,-4.5201,-4.5202,-4.5214,-4.5206,-4.5175,-4.5174,-4.5173,-4.5172,0,-4.5067,-4.5049,-4.5119,-4.5119,-4.5121,-4.5172,-4.5172,-4.5211,-4.5201,-4.5253,-4.5264,-4.5248,-4.5289,-4.527,-4.5312,-4.5301,-4.5388,-4.537,-4.5384,-4.5381,-4.5447,-4.5442,-4.5663,-4.5691,-4.5483,-4.5485,-4.5487,0,-4.5162,-4.521,-4.5216,-4.524,-4.5247,-4.5287,-4.5308,-4.528,-4.5304,-4.5322,-4.5359,-4.5397,-4.5426,-4.5494,-4.5487,-4.552,-4.5504,-4.5579,-4.5509,-4.5518,-4.5508,-4.5506,-4.5512,-4.5594,-4.5596,-4.5598,-4.56,0,-4.5335,-4.5325,-4.5357,-4.5388,-4.5415,-4.5437,-4.5456,-4.5478,-4.5451,-4.548,-4.5522,-4.5545,-4.5589,-4.5628,-4.5657,-4.5661,-4.5627,-4.5622,-4.5639,-4.565,-4.5658,-4.5657,-4.5425,-4.5617,-4.5615,-4.5614,-4.5613,-4.5612,-4.5464,-4.5505,-4.5516,-4.5554,-4.5566,-4.5585,-4.5622,-4.5617,-4.5652,-4.5686,-4.5667,-4.5717,-4.5729,-4.5765,-4.5775,-4.5814,-4.5784,-4.5809,-4.5815,-4.5822,-4.5832,-4.565,-4.5819,-4.5818,-4.5818,-4.5817,-4.5817,0,-4.5637,-4.5642,-4.5677,-4.5706,-4.5737,-4.5701,-4.572,-4.5749,-4.5793,-4.5808,-4.5837,-4.5887,-4.5925,-4.5921,-4.5956,-4.5989,-4.5974,-4.5999,-4.5997,-4.5999,-4.5855,-4.5838,-4.601,-4.601,-4.601,-4.601,-4.601,-4.601,-4.573,-4.5798,-4.5789,-4.5863,-4.5867,-4.5916,-4.5931,-4.5949,-4.596,-4.6018,-4.6049,-4.6047,-4.6055,-4.609,-4.6124,-4.6122,-4.6138,-4.617,-4.6162,-4.6028,-4.6009,-4.5991,-4.5975,-4.6173,-4.6173,-4.6303,-4.6304,-4.6305]},{"header":{"parameterUnit":"m.s-1","parameterCategory":1,"la1":30.2991,"la2":30.254,"lo1":-89.0895,"lo2":-89.0444,"dy":0.0017,"dx":0.0017,"nx":28,"ny":28,"refTime":"2024-10-05T21:00:00:Z","depth":0,"parameterNumber":3,"parameterNumberName":"V-component_of_WINDS"},"data":[0,0,0,0,0,0,0,0,0,0,0,0,0,0,0,0,0,0,0,0,0,0,0,0,0,0,0,0,0,0,0,0,0,0,0,0,0,0,0,0,0,0,0,0,0,0,0,0,0,0,0,0,0,0,0,0,0,0,-1.9359,-1.9359,0,-1.9394,-1.9394,-1.9395,-1.9392,-1.9391,-1.9391,-1.939,-1.9428,-1.9429,-1.9431,0,0,0,0,0,0,0,0,0,0,0,0,0,-1.9291,-1.9293,-1.9359,-1.9359,-1.9359,-1.9394,-1.9394,-1.9395,-1.9392,-1.9391,-1.9391,-1.939,-1.9427,-1.9429,-1.9431,0,0,0,0,0,0,0,0,0,0,0,0,0,-1.9323,-1.9293,-1.9358,-1.9362,-1.9363,-1.9394,-1.9394,-1.9395,-1.9392,-1.9391,-1.939,-1.939,-1.9427,-1.9429,-1.9431,-1.9461,0,0,-1.9438,-1.9439,0,0,0,0,0,0,0,0,-1.9321,-1.9325,-1.9361,-1.9362,-1.9363,-1.9388,-1.9384,-1.9417,-1.9392,-1.9381,-1.939,-1.9389,-1.9415,-1.9418,-1.9427,-1.9463,-1.9465,-1.9438,-1.944,-1.9441,-1.9441,0,0,0,0,0,0,0,-1.9319,-1.9324,-1.9373,-1.9362,-1.9363,-1.9363,-1.9366,-1.9391,-1.9402,-1.9382,-1.9382,-1.9386,-1.9416,-1.9425,-1.9428,-1.9465,-1.9438,-1.944,-1.9442,-1.9443,-1.9531,-1.9532,0,0,0,0,0,0,-1.9316,-1.9322,-1.9371,-1.9374,-1.9339,-1.9365,-1.9369,-1.938,-1.9402,-1.9404,-1.9387,-1.9386,-1.9421,-1.9425,-1.9429,-1.9468,-1.9441,-1.9443,-1.9444,-1.953,-1.9531,-1.9532,0,0,0,0,0,0,-1.9314,-1.932,-1.937,-1.9348,-1.9354,-1.9367,-1.938,-1.9382,-1.9391,-1.9405,-1.9408,-1.9394,-1.9421,-1.9426,-1.9454,-1.9469,-1.9444,-1.9446,-1.9529,-1.953,-1.9531,-1.9544,0,0,0,0,0,0,-1.9312,-1.932,-1.933,-1.9348,-1.9355,-1.9393,-1.9381,-1.9383,-1.9394,-1.9394,-1.9413,-1.9415,-1.942,-1.945,-1.9456,-1.9472,-1.9448,-1.9527,-1.9529,-1.9531,-1.9542,-1.9546,-1.9549,0,0,0,0,0,-1.931,-1.9332,-1.9331,-1.9337,-1.9369,-1.9394,-1.9398,-1.9404,-1.9395,-1.9407,-1.9417,-1.9415,-1.9466,-1.9453,-1.946,-1.9476,-1.9526,-1.9529,-1.9531,-1.9541,-1.9545,-1.9549,0,0,0,0,0,0,-1.9316,-1.9335,-1.9333,-1.9362,-1.9377,-1.9394,-1.9408,-1.9408,-1.9425,-1.9424,-1.943,-1.9434,-1.9463,-1.9472,-1.9458,-1.9508,-1.9495,-1.9499,-1.9501,-1.9505,-1.9508,-1.9506,-1.9449,0,0,0,0,0,-1.9321,-1.9339,-1.9354,-1.9378,-1.9386,-1.9396,-1.9407,-1.941,-1.9425,-1.9432,-1.9443,-1.9459,-1.9479,-1.9492,-1.9511,-1.9543,-1.9549,-1.9558,-1.9561,-1.9563,-1.9567,-1.9587,-1.9592,-1.9539,-1.9539,-1.9539,0,0,-1.9331,-1.9343,-1.9354,-1.938,-1.9391,-1.9412,-1.9401,-1.9422,-1.9437,-1.9435,-1.9463,-1.9472,-1.949,-1.9521,-1.9535,-1.9529,-1.9583,-1.9566,-1.9568,-1.9571,-1.959,-1.9595,-1.96,-1.9541,-1.9541,-1.954,0,0,-1.9359,-1.9369,-1.9392,-1.9404,-1.9422,-1.9429,-1.9434,-1.9452,-1.9458,-1.9485,-1.9485,-1.9503,-1.9537,-1.9551,-1.9562,-1.9598,-1.9597,-1.9604,-1.9621,-1.9641,-1.9645,-1.9649,-1.9664,-1.9669,-1.9607,-1.9607,-1.9607,0,-1.937,-1.9399,-1.9403,-1.9425,-1.9438,-1.9436,-1.946,-1.9471,-1.9495,-1.9504,-1.9497,-1.954,-1.9552,-1.9588,-1.9596,-1.9605,-1.9613,-1.9602,-1.9644,-1.9648,-1.9651,-1.9666,-1.9671,-1.9608,-1.9608,-1.9608,-1.9608,0,-1.9412,-1.9433,-1.9448,-1.9472,-1.9485,-1.9508,-1.9517,-1.953,-1.9532,-1.954,-1.957,-1.9584,-1.9607,-1.9615,-1.9617,-1.9652,-1.9648,-1.9642,-1.963,-1.9657,-1.9671,-1.9677,-1.9609,-1.9609,-1.9609,-1.9608,0,0,-1.9446,-1.9472,-1.9478,-1.9489,-1.951,-1.9526,-1.9549,-1.9572,-1.9584,-1.9601,-1.9622,-1.9651,-1.9646,-1.9659,-1.9663,-1.968,-1.971,-1.9672,-1.9673,-1.9681,-1.9752,-1.9758,-1.9764,-1.9709,-1.971,-1.9711,-1.9752,0,-1.9478,-1.9519,-1.9525,-1.9561,-1.9582,-1.9581,-1.9602,-1.9617,-1.9626,-1.9645,-1.9654,-1.9676,-1.9667,-1.9675,-1.9692,-1.9703,-1.9725,-1.97,-1.9731,-1.9732,-1.9728,-1.9771,-1.9777,-1.9815,-1.9757,-1.9758,-1.9758,0,-1.9522,-1.954,-1.9579,-1.9599,-1.9607,-1.9626,-1.9648,-1.9666,-1.9684,-1.9689,-1.9704,-1.9706,-1.9732,-1.9717,-1.9754,-1.9737,-1.975,-1.9757,-1.9759,-1.9764,-1.9748,-1.978,-1.9826,-1.9833,-1.9766,-1.9766,-1.9765,0,-1.9546,-1.958,-1.9608,-1.9618,-1.964,-1.9654,-1.9664,-1.9681,-1.9695,-1.9715,-1.9724,-1.9746,-1.9759,-1.9777,-1.9785,-1.9773,-1.9822,-1.9808,-1.9829,-1.9829,-1.9841,-1.984,-1.9893,-1.9845,-1.9845,-1.9845,-1.9845,0,-1.9583,-1.9607,-1.962,-1.9637,-1.9666,-1.9672,-1.97,-1.9709,-1.9725,-1.9746,-1.9746,-1.9766,-1.9774,-1.9796,-1.9802,-1.9833,-1.9838,-1.9845,-1.9847,-1.9846,-1.9846,-1.9856,-1.9855,-1.9847,-1.9846,-1.9846,-1.9846,0,-1.9615,-1.9624,-1.9655,-1.9674,-1.968,-1.97,-1.9717,-1.9735,-1.9744,-1.977,-1.9777,-1.979,-1.9816,-1.9825,-1.9856,-1.986,-1.9897,-1.9895,-1.9891,-1.9892,-1.9914,-1.9913,-1.9977,-1.9987,-1.993,-1.9931,-1.9931,0,-1.9639,-1.9658,-1.968,-1.9694,-1.9705,-1.9726,-1.9741,-1.9748,-1.9763,-1.9787,-1.9802,-1.9828,-1.9848,-1.9889,-1.9903,-1.9927,-1.9927,-1.9948,-1.9931,-1.9931,-1.9931,-1.9931,-1.9934,-1.9952,-1.9953,-1.9953,-1.9953,0,-1.9682,-1.9685,-1.9706,-1.9729,-1.9747,-1.9765,-1.9783,-1.9794,-1.9804,-1.9822,-1.9848,-1.9864,-1.9896,-1.9922,-1.9947,-1.9959,-1.9959,-1.9959,-1.9965,-1.9966,-1.9964,-1.9968,-1.9903,-1.9958,-1.9957,-1.9957,-1.9957,-1.9956,-1.9712,-1.973,-1.9749,-1.9773,-1.9787,-1.9804,-1.9823,-1.9834,-1.9855,-1.9882,-1.9885,-1.9914,-1.9933,-1.9967,-1.998,-2.0004,-1.9998,-2.0007,-2.001,-2.0013,-2.0016,-1.9958,-2.0008,-2.0008,-2.0008,-2.0008,-2.0008,0,-1.9757,-1.9769,-1.9791,-1.9817,-1.9836,-1.9833,-1.9853,-1.987,-1.9895,-1.9913,-1.9934,-1.9965,-1.9991,-2.0007,-2.0033,-2.0049,-2.005,-2.0056,-2.0056,-2.0059,-2.0018,-2.001,-2.0055,-2.0055,-2.0055,-2.0055,-2.0055,-2.0055,-1.9783,-1.9814,-1.982,-1.9859,-1.9872,-1.99,-1.9912,-1.9929,-1.9943,-1.9978,-2.0,-2.0009,-2.0027,-2.0055,-2.0079,-2.0083,-2.0094,-2.0101,-2.0105,-2.0066,-2.0062,-2.0057,-2.0051,-2.0103,-2.0103,-2.0145,-2.0145,-2.0146]}]]